Weather

Rainfall Maps have ended for the season and will begin again on May 1st.

DAILY 7 DAY TOTAL
onrain

Note: Some stations are located near irrigated fields and may also report irrigation

Alliston Mount Forest Blyth Guelph Grand Bend Strathroy Woodstock Belmont Simcoe Leamington Chatham West Lorne






West Lorne - Historical Weather Data
Date Max Temp (°C) Min Temp (°C) Avg Temp (°C) Rain (mm) 7Day Rain(mm) Total Rain(mm) Avg RH (%)
10/31/2018 13.6 4.3 10.4 15.2 37.2 546.8 98.1
10/30/2018 12.6 0.1 6.9 0.4 22.0 531.6 94.2
10/29/2018 10.9 3.1 5.9 0.2 22.8 531.2 89.1
10/28/2018 6.8 2.4 4.5 7.8 22.6 531.0 99.9
10/27/2018 5.3 2.5 4.4 13.2 15.2 523.2 100.0
10/26/2018 9.3 1.4 5.7 0.4 3.6 510.0 89.2
10/25/2018 10.7 -4.4 2.3 0.0 3.6 509.6 89.7
10/24/2018 7.5 -2.5 3.4 0.0 3.6 509.6 94.7
10/23/2018 10.6 2.1 6.0 1.2 3.6 509.6 92.5
10/22/2018 12.7 1.7 6.7 0.0 2.4 508.4 81.3
10/21/2018 7.7 0.6 2.8 0.4 3.0 508.4 86.5
10/20/2018 13.6 2.6 7.8 1.6 2.6 508.0 95.7
10/19/2018 13.9 4.5 8.9 0.4 1.4 506.4 78.4
10/18/2018 8.6 -2.0 3.6 0.0 2.2 506.0 76.2
10/17/2018 8.9 2.5 6.4 0.0 2.4 506.0 74.5
10/16/2018 11.6 -2.2 5.3 0.0 2.4 506.0 79.0
10/15/2018 11.4 1.5 9.0 0.6 2.4 506.0 89.6
10/14/2018 14.1 2.4 7.5 0.0 2.2 505.4 91.8
10/13/2018 10.5 2.6 5.5 0.4 2.2 505.4 88.8
10/12/2018 8.7 3.9 6.4 1.2 46.6 505.0 80.8
10/11/2018 20.7 7.8 15.0 0.2 45.4 503.8 86.8
10/10/2018 25.4 18.7 21.4 0.0 46.0 503.6 96.0
10/9/2018 27.0 18.5 22.1 0.0 46.2 503.6 95.7
10/8/2018 22.6 13.6 17.2 0.4 55.4 503.6 99.3
10/7/2018 16.8 12.9 14.8 0.0 80.0 503.2 100.0
10/6/2018 23.8 13.6 18.8 44.8 86.0 503.2 99.7
10/5/2018 14.8 2.5 9.6 0.0 41.6 458.4 98.1
10/4/2018 23.2 5.2 16.2 0.8 42.4 458.4 91.4
10/3/2018 22.3 10.5 15.5 0.2 41.6 457.6 98.8
10/2/2018 21.4 12.4 16.7 9.2 41.4 457.4 99.4
10/1/2018 13.1 10.1 11.4 25.0 53.2 448.2 100.0
9/30/2018 16.5 8.3 11.4 6.0 35.0 423.2 99.5
9/29/2018 16.9 5.8 10.9 0.4 29.0 417.2 85.3
9/28/2018 21.6 6.1 13.3 0.8 28.6 416.8 89.1
9/27/2018 17.4 5.1 11.3 0.0 27.8 416.0 94.2
9/26/2018 22.1 9.1 17.8 0.0 31.6 416.0 89.8
9/25/2018 21.8 17.2 19.7 21.0 31.6 416.0 100.0
9/24/2018 19.3 9.6 15.0 6.8 10.6 395.0 99.8
9/23/2018 20.5 4.9 12.2 0.0 3.8 388.2 87.6
9/22/2018 17.2 7.2 12.6 0.0 3.8 388.2 87.7
9/21/2018 28.9 16.4 24.2 0.0 3.8 388.2 83.9
9/20/2018 21.8 12.9 17.6 3.8 3.8 388.2 100.0
9/19/2018 24.8 12.9 17.8 0.0 0.2 384.4 90.5
9/18/2018 28.2 15.0 20.3 0.0 0.2 384.4 94.9
9/17/2018 26.2 16.9 21.4 0.0 0.2 384.4 95.6
9/16/2018 28.4 15.4 21.8 0.0 24.0 384.4 91.9
9/15/2018 29.2 15.8 21.8 0.0 27.6 384.4 93.1
9/14/2018 28.3 16.7 22.1 0.0 27.6 384.4 94.8
9/13/2018 25.1 14.5 19.7 0.2 27.6 384.4 98.0
9/12/2018 23.5 9.9 16.4 0.0 27.6 384.2 94.1
9/11/2018 23.0 11.2 15.4 0.0 27.6 384.2 95.3
9/10/2018 17.1 11.1 14.4 23.8 27.6 384.2 100.0
9/9/2018 15.2 11.1 13.1 3.6 4.2 360.4 80.9
9/8/2018 17.6 11.3 14.7 0.0 2.0 356.8 88.3
9/7/2018 24.5 13.7 18.0 0.0 2.0 356.8 94.8
9/6/2018 26.6 16.4 20.7 0.2 2.0 356.8 96.3
9/5/2018 31.0 22.3 26.1 0.0 1.8 356.6 92.7
9/4/2018 29.0 19.5 23.8 0.0 1.8 356.6 97.1
9/3/2018 30.7 21.2 24.7 0.4 1.8 356.6 97.2
9/2/2018 29.1 21.6 24.6 1.4 1.6 356.2 96.0
9/1/2018 27.6 15.7 22.3 0.0 0.2 354.8 96.7
8/31/2018 25.4 12.1 18.3 0.0 0.2 354.8 91.6
8/30/2018 23.8 14.4 18.9 0.0 0.2 354.8 90.8
8/29/2018 27.4 19.6 24.1 0.0 0.2 354.8 94.3
8/28/2018 29.4 23.0 26.0 0.0 0.6 354.8 94.7
8/27/2018 29.8 19.7 24.4 0.2 23.8 354.8 96.9
8/26/2018 28.8 19.4 23.5 0.0 23.6 354.6 96.6
8/25/2018 24.1 20.6 21.7 0.0 23.6 354.6 96.6
8/24/2018 24.7 12.5 19.6 0.0 24.0 354.6 88.7
8/23/2018 25.6 10.7 17.9 0.0 37.4 354.6 87.2
8/22/2018 22.2 11.5 17.6 0.4 71.4 354.6 91.8
8/21/2018 25.4 18.5 22.0 23.2 71.0 354.2 99.7
8/20/2018 25.5 14.1 19.9 0.0 47.8 331.0 96.7
8/19/2018 26.3 14.8 19.8 0.0 47.8 331.0 93.6
8/18/2018 28.2 18.1 22.3 0.4 53.2 331.0 93.0
8/17/2018 26.8 20.1 22.5 13.4 76.2 330.6 99.4
8/16/2018 23.6 19.9 21.9 34.0 62.8 317.2 100.0
8/15/2018 28.3 19.4 23.3 0.0 28.8 283.2 93.6
8/14/2018 29.0 16.4 22.7 0.0 69.0 283.2 89.7
8/13/2018 29.4 14.4 21.6 0.0 81.0 283.2 89.7
8/12/2018 27.2 14.9 21.0 5.4 81.0 283.2 89.9
8/11/2018 28.6 12.2 20.2 23.4 75.6 277.8 89.8
8/10/2018 27.0 16.1 21.1 0.0 52.2 254.4 90.7
8/9/2018 27.8 15.1 21.5 0.0 52.2 254.4 93.5
8/8/2018 28.0 17.6 22.2 40.2 52.2 254.4 97.0
8/7/2018 27.5 20.7 23.1 12.0 12.0 214.2 97.6
8/6/2018 30.8 19.5 23.9 0.0 0.0 202.2 96.2
8/5/2018 30.5 16.5 24.2 0.0 0.0 202.2 93.3
8/4/2018 28.9 14.5 21.8 0.0 0.0 202.2 90.8
8/3/2018 27.2 16.1 22.2 0.0 0.0 202.2 94.4
8/2/2018 25.4 15.8 21.1 0.0 0.0 202.2 94.8
8/1/2018 23.2 18.6 21.4 0.0 0.0 202.2 99.5
7/31/2018 25.4 14.6 20.7 0.0 0.0 202.2 94.4
7/30/2018 26.1 14.0 19.7 0.0 1.2 202.2 94.5
7/29/2018 25.3 13.5 18.7 0.0 19.8 202.2 94.9
7/28/2018 25.1 12.6 18.3 0.0 29.4 202.2 90.5
7/27/2018 25.1 13.3 18.4 0.0 32.0 202.2 94.4
7/26/2018 27.2 16.3 21.4 0.0 35.4 202.2 93.6
7/25/2018 30.1 17.1 22.9 0.0 35.4 202.2 88.6
7/24/2018 26.7 17.7 22.0 1.2 35.4 202.2 98.1
7/23/2018 26.9 15.7 21.5 18.6 34.2 201.0 95.6
7/22/2018 21.6 15.1 17.5 9.6 15.6 182.4 99.2
7/21/2018 23.8 19.7 21.7 2.6 6.0 172.8 96.7
7/20/2018 27.2 15.1 21.3 3.4 3.6 170.2 95.2
7/19/2018 26.0 10.4 18.9 0.0 0.2 166.8 82.7
7/18/2018 28.4 10.5 18.9 0.0 0.2 166.8 79.2
7/17/2018 28.0 14.1 22.0 0.0 0.2 166.8 77.2
7/16/2018 30.8 20.0 24.9 0.0 0.2 166.8 92.8
7/15/2018 30.5 17.9 24.5 0.0 0.2 166.8 91.7
7/14/2018 29.2 19.3 23.7 0.2 0.2 166.8 94.2
7/13/2018 27.9 14.4 22.1 0.0 0.0 166.6 84.1
7/12/2018 26.9 11.1 19.4 0.0 0.0 166.6 84.3
7/11/2018 29.8 11.4 20.1 0.0 13.2 166.6 76.3
7/10/2018 29.8 14.4 22.5 0.0 13.2 166.6 73.2
7/9/2018 29.3 11.8 21.5 0.0 13.2 166.6 84.3
7/8/2018 27.0 10.1 19.0 0.0 13.2 166.6 83.1
7/7/2018 24.5 8.0 17.3 0.0 13.2 166.6 76.8
7/6/2018 23.6 11.1 19.4 0.0 13.2 166.6 78.7
7/5/2018 32.6 20.6 25.8 13.2 13.2 166.6 93.4
7/4/2018 31.9 18.8 25.3 0.0 0.0 153.4 87.2
7/3/2018 30.6 16.5 23.9 0.0 18.0 153.4 79.2
7/2/2018 31.2 19.8 26.6 0.0 22.6 153.4 86.4
7/1/2018 31.3 20.1 26.4 0.0 22.6 153.4 85.5
6/30/2018 32.7 21.3 26.8 0.0 45.0 153.4 90.6
6/29/2018 30.1 17.1 24.5 0.0 47.2 153.4 85.9
6/28/2018 28.4 17.4 21.8 0.0 51.2 153.4 93.3
6/27/2018 21.9 18.6 20.1 18.0 51.2 153.4 100.0
6/26/2018 24.3 9.8 18.1 4.6 40.2 135.4 82.6
6/25/2018 25.4 11.2 17.2 0.0 35.8 130.8 84.3
6/24/2018 21.5 13.8 18.7 22.4 45.4 130.8 99.4
6/23/2018 23.9 17.2 19.2 2.2 23.0 108.4 99.7
6/22/2018 22.3 14.9 17.4 4.0 24.4 106.2 79.2
6/21/2018 24.3 11.4 18.6 0.0 20.4 102.2 84.4
6/20/2018 22.1 14.1 18.2 7.0 20.4 102.2 94.8
6/19/2018 25.6 16.7 20.5 0.2 16.8 95.2 89.9
6/18/2018 34.1 20.4 27.0 9.6 16.6 95.0 83.4
6/17/2018 30.8 15.3 23.7 0.0 7.0 85.4 83.5
6/16/2018 25.9 15.7 19.9 3.6 8.2 85.4 87.1
6/15/2018 26.0 7.3 18.1 0.0 5.0 81.8 67.8
6/14/2018 28.5 12.6 20.3 0.0 5.0 81.8 58.3
6/13/2018 30.6 16.1 22.7 3.4 5.0 81.8 77.9
6/12/2018 24.8 12.3 18.9 0.0 1.6 78.4 85.2
6/11/2018 25.9 12.4 19.4 0.0 1.6 78.4 57.6
6/10/2018 20.4 15.6 17.8 1.2 1.6 78.4 89.2
6/9/2018 19.3 11.9 17.0 0.4 13.8 77.2 86.3
6/8/2018 25.7 11.7 18.4 0.0 13.4 76.8 84.7
6/7/2018 22.7 10.3 16.5 0.0 13.4 76.8 90.7
6/6/2018 20.0 8.8 13.4 0.0 13.4 76.8 84.9
6/5/2018 16.7 9.1 13.7 0.0 13.4 76.8 81.6
6/4/2018 21.5 14.5 16.9 0.0 13.4 76.8 79.9
6/3/2018 22.4 11.9 17.3 13.4 13.4 76.8 97.0
6/2/2018 21.5 10.3 15.9 0.0 0.0 63.4 92.9
6/1/2018 29.4 11.9 22.3 0.0 0.0 63.4 85.6
5/31/2018 30.1 20.1 24.1 0.0 0.0 63.4 89.0
5/30/2018 29.0 18.9 23.4 0.0 0.0 63.4 81.0
5/29/2018 30.4 16.4 24.2 0.0 0.0 63.4 72.3
5/28/2018 30.3 15.9 23.8 0.0 0.0 63.4 79.9
5/27/2018 26.7 13.6 20.7 0.0 2.4 63.4 94.2
5/26/2018 24.7 15.4 20.3 0.0 2.4 63.4 84.1
5/25/2018 28.4 11.2 20.7 0.0 2.8 63.4 67.3
5/24/2018 27.0 8.2 17.9 0.0 2.8 63.4 76.7
5/23/2018 27.0 10.6 18.1 0.0 3.6 63.4 75.0
5/22/2018 21.5 12.1 15.7 0.0 3.6 63.4 97.0
5/21/2018 19.5 3.5 12.4 2.4 17.0 63.4 81.2
5/20/2018 17.8 7.3 13.1 0.0 14.6 61.0 92.5
5/19/2018 21.2 13.8 16.5 0.4 15.2 61.0 93.5
5/18/2018 22.1 11.1 16.4 0.0 29.4 60.6 59.6
5/17/2018 27.5 8.1 17.6 0.8 35.8 60.6 78.6
5/16/2018 22.6 6.9 15.3 0.0 35.4 59.8 87.8
5/15/2018 23.4 10.8 17.2 13.4 38.4 59.8 93.4
5/14/2018 18.8 7.5 13.5 0.0 25.0 46.4 99.5
5/13/2018 18.6 6.6 12.2 0.6 25.0 46.4 87.3
5/12/2018 13.6 5.8 8.1 14.6 25.2 45.8 96.2
5/11/2018 8.6 2.3 5.9 6.4 10.6 31.2 88.3
5/10/2018 20.4 7.1 16.6 0.4 11.4 24.8 83.6
5/9/2018 23.9 5.5 15.8 3.0 24.4 24.4 79.7
5/8/2018 21.3 3.1 13.1 0.0 21.4 21.4 70.2
5/7/2018 18.4 5.0 12.0 0.0 21.4 21.4 79.8
5/6/2018 23.0 10.3 15.1 0.8 21.4 21.4 85.7
5/5/2018 22.9 6.9 15.5 0.0 20.6 20.6 77.4
5/4/2018 23.5 8.4 16.1 7.2 20.6 20.6 89.0
5/3/2018 20.9 11.9 16.5 13.4 13.4 13.4 99.7
5/2/2018 26.0 14.6 21.1 0.0 0.0 0.0 58.9
5/1/2018 24.7 6.3 17.5 0.0 6.2 0.0 48.0